Orbital Elements at Epoch 2459200.5 (2020-Dec-17.0) TDB
Reference: JPL 13 (heliocentric ecliptic J2000)
Element | Value | Uncertainty (1-sigma) | Units |
e | .022592019934391 | 6.5731e-08 | |
a | 3.119581843208125 | 3.8005e-08 | au |
q | 3.049104188019403 | 1.9531e-07 | au |
i | 10.53602608560366 | 4.8203e-06 | deg |
node | 160.0042405551666 | 3.5675e-05 | deg |
peri | 59.72692063375161 | 0.00014852 | deg |
M | 66.15104399727548 | 0.00013881 | deg |
tp | 2458830.691231314789 (2019-Dec-13.19123132) | 0.00077968 | TDB |
period | 2012.532965196427 5.51 | 3.6777e-05 1.007e-07 | d yr |
n | .1788790574989977 | 3.2688e-09 | deg/d |
Q | 3.190059498396848 | 3.8863e-08 | au |
|
| | Orbit Determination Parameters
Additional Information
|